Flag for Canada Weather past 2 weeks in Burnaby, British Columbia, Canada

Now
64 °F

Mostly cloudy.


Feels Like: 64 °F
Forecast: 53 / 60 °F
Wind: 6 mph from Southeast

Location: Vancouver International Air-Port

Current Time: Sep 1, 2014 at 11:58:01 PM

Latest Report: Sep 1, 2014 at 11:00 PM


Visibility: 15 mi

Pressure: 29.98 "Hg

Humidity: 73%

Dew point: 55 °F

Location of BurnabyLocation

Historic Weather in Burnaby — Graph

°F

Burnaby temperature yesterday

Maximum temperature yesterday: 70 °F (at 4:00 PM)
Minimum temperature yesterday: 59 °F (at 4:00 AM)
Average temperature yesterday: 63 °F

Past Weeks' High & Low Weather Summary

 TemperatureHumidityPressure
High77 °F (Aug 27, 5:00 PM)100% (Aug 18, 6:00 AM)30.15 "Hg (Aug 18, 6:00 AM)
Low55 °F (Aug 23, 6:00 AM)53% (Aug 31, 4:00 PM)29.75 "Hg (Aug 19, 8:00 PM)
Average65 °F79%29.98 "Hg
* Reported Aug 17 10:00 PM — Sep 1 10:00 PM, Burnaby, Weather by CustomWeather, © 2014

Note: Actual official high and low records may vary slightly from our data, if they occured in-between our weather recording intervals... More about our weather records

Advertising

Burnaby weather history for previous 24 hours

 ConditionsComfort  
Time TempWeatherWind HumidityBarometerVisibility
10:00 PM
Sep 1
64 °FOvercast.3 mph68%29.99 "Hg15 mi
9:00 PM64 °FMostly cloudy.6 mph68%29.99 "Hg15 mi
8:00 PM66 °FMostly cloudy.6 mph64%29.99 "Hg20 mi
7:00 PM66 °FMore clouds than sun.6 mph60%30.00 "Hg20 mi
6:00 PM68 °FBroken clouds.6 mph60%30.01 "Hg20 mi
5:00 PM66 °FMostly cloudy.6 mph73%30.03 "Hg20 mi
4:00 PM66 °FMostly cloudy.8 mph68%30.04 "Hg20 mi
3:00 PM68 °FBroken clouds.7 mph60%30.04 "Hg20 mi
2:00 PM70 °FBroken clouds.10 mph57%30.06 "Hg20 mi
1:00 PM68 °FBroken clouds.13 mph60%30.06 "Hg20 mi
12:00 PM68 °FPartly sunny.10 mph60%30.06 "Hg20 mi
11:00 AM66 °FBroken clouds.14 mph68%30.07 "Hg20 mi
10:00 AM64 °FPartly sunny.13 mph73%30.07 "Hg20 mi
9:00 AM61 °FPartly sunny.12 mph83%30.07 "Hg15 mi
8:00 AM59 °FBroken clouds.12 mph82%30.06 "Hg20 mi
7:00 AM57 °FPassing clouds.10 mph88%30.06 "Hg20 mi
6:00 AM55 °FPassing clouds.6 mph88%30.04 "Hg20 mi
5:00 AM57 °FPassing clouds.9 mph82%30.04 "Hg15 mi
4:00 AM57 °FPassing clouds.8 mph82%30.04 "Hg15 mi
3:00 AM59 °FPassing clouds.9 mph82%30.04 "Hg15 mi
2:00 AM61 °FOvercast.9 mph77%30.04 "Hg15 mi
1:00 AM59 °FMostly cloudy.8 mph82%30.04 "Hg15 mi
12:00 AM61 °FMostly cloudy.8 mph77%30.03 "Hg15 mi
11:00 PM
Aug 31
61 °FMostly cloudy.7 mph77%30.02 "Hg15 mi
Weather by CustomWeather, © 2014

See weather overviewHow to use our weather pages